This is the latest recevied weather packets stored in our database for station/object IN3XSV-15. If no packets are shown the sender has not sent any weather packets the latest 10 day(s).
| Time | Temp. | Humidity | Pressure | Rain* | Wind** | Luminosity | Snow |
|---|---|---|---|---|---|---|---|
| 1777817702 | 11.11° C | 61% | 861.5 hPa | 0 mm | - | - | - |
| 1777817403 | 11.11° C | 60% | 861.4 hPa | 0 mm | - | - | - |
| 1777817103 | 11.67° C | 60% | 861.4 hPa | 0 mm | - | - | - |
| 1777816802 | 11.67° C | 60% | 861.4 hPa | 0 mm | - | - | - |
| 1777816503 | 11.67° C | 61% | 861.4 hPa | 0 mm | - | - | - |
| 1777816202 | 11.67° C | 61% | 861.5 hPa | 0 mm | - | - | - |
| 1777815903 | 11.67° C | 61% | 861.5 hPa | 0 mm | - | - | - |
| 1777815602 | 11.67° C | 61% | 861.5 hPa | 0 mm | - | - | - |
| 1777815302 | 11.67° C | 62% | 861.7 hPa | 0 mm | - | - | - |
| 1777815003 | 11.67° C | 62% | 861.5 hPa | 0 mm | - | - | - |
| 1777814703 | 11.67° C | 62% | 861.6 hPa | 0 mm | - | - | - |
| 1777814402 | 11.67° C | 57% | 861.9 hPa | 0 mm | - | - | - |
| 1777814103 | 11.67° C | 62% | 861.6 hPa | 0 mm | - | - | - |
| 1777813803 | 11.67° C | 63% | 861.7 hPa | 0 mm | - | - | - |
| 1777813503 | 11.67° C | 63% | 861.7 hPa | 0 mm | - | - | - |
| 1777813203 | 11.67° C | 62% | 861.8 hPa | 0 mm | - | - | - |
| 1777812903 | 12.22° C | 62% | 861.9 hPa | 0 mm | - | - | - |
| 1777812603 | 12.22° C | 61% | 861.7 hPa | 0 mm | - | - | - |
| 1777812303 | 12.22° C | 62% | 862 hPa | 0 mm | - | - | - |
| 1777812003 | 12.22° C | 62% | 861.8 hPa | 0 mm | - | - | - |
| 1777811703 | 12.78° C | 62% | 861.8 hPa | 0 mm | - | - | - |
| 1777811403 | 12.22° C | 62% | 861.9 hPa | 0 mm | - | - | - |
| 1777811103 | 12.22° C | 62% | 861.6 hPa | 0 mm | - | - | - |
| 1777810803 | 12.22° C | 60% | 862 hPa | 0 mm | - | - | - |
| 1777810503 | 12.78° C | 59% | 861.7 hPa | 0 mm | - | - | - |
* Rain latest hour (hover to see other rain measurements)
** Current wind speed in m/s (hover to see current wind gust speed)